Date,TemperatureHighF,TemperatureAvgF,TemperatureLowF,DewpointHighF,DewpointAvgF,DewpointLowF,HumidityHigh,HumidityAvg,HumidityLow,PressureMaxIn,PressureMinIn,WindSpeedMaxMPH,WindSpeedAvgMPH,GustSpeedMaxMPH,PrecipitationSumIn
2013-1-1,80,73,65,63,59,57,87,64,50,30.11,29.97,8,2,16,0.00
2013-1-2,83,72,62,70,64,59,97,78,45,30.01,29.91,4,0,11,0.00
2013-1-3,84,74,68,74,65,-100,100,80,53,30.05,29.94,5,1,8,0.00
2013-1-4,74,28,67,74,-44,-100,100,33,92,30.14,30.02,6,-561,8,0.00
2013-1-5,77,65,68,75,45,-100,100,78,75,30.17,30.07,6,-92,8,0.00
2013-1-6,82,75,68,78,55,-100,100,67,4,30.10,29.98,6,2,13,0.00
2013-1-7,78,71,70,74,62,-100,100,83,5,30.08,29.99,6,-24,9,0.00
2013-1-8,82,76,71,79,61,14,100,69,8,30.11,29.99,7,2,13,0.00
2013-1-9,83,78,75,70,53,9,81,48,6,30.19,30.07,9,4,14,0.00
2013-1-10,81,77,74,81,3,-100,100,25,1,30.21,30.10,9,4,17,0.00
2013-1-11,77,74,72,63,54,31,72,53,19,30.17,30.09,5,1,10,0.00
2013-1-12,81,75,67,73,25,-100,100,43,1,30.10,30.00,7,2,13,0.00
2013-1-13,81,75,67,72,11,-100,100,31,1,30.05,29.98,9,2,14,0.00
2013-1-14,81,72,65,68,10,-100,100,44,1,30.08,30.03,7,2,13,0.00
2013-1-15,81,73,66,75,38,-100,100,56,1,30.05,29.96,6,2,11,0.00
2013-1-16,82,73,64,76,38,-100,100,57,1,30.02,29.93,6,2,11,0.00
2013-1-17,70,70,70,70,70,70,100,100,100,29.97,29.95,0,0,0,0.00
2013-1-19,74,70,64,74,69,64,100,97,79,30.14,30.02,5,1,7,0.00
2013-1-20,81,60,70,77,10,-100,100,46,1,30.07,29.93,4,-168,7,0.00
2013-1-21,81,65,67,73,36,-100,100,59,8,29.99,29.88,7,-112,11,0.00
2013-1-22,76,68,63,68,14,-100,100,47,1,30.13,29.93,9,4,16,0.00
2013-1-23,75,66,60,75,18,-100,100,42,1,30.22,30.11,6,2,10,0.00
2013-1-24,76,65,58,76,28,-100,100,63,1,30.21,30.11,8,2,13,0.00
2013-1-25,78,65,56,78,24,-100,100,58,1,30.21,30.10,6,-9,11,0.00
2013-1-26,79,68,60,79,1,-100,100,50,3,30.17,30.08,6,1,10,0.00
2013-1-27,79,58,63,79,-48,-100,100,10,1,30.20,30.11,5,-190,13,0.00
2013-1-28,81,65,70,52,-31,-100,47,15,1,30.23,30.14,8,-64,16,0.00
2013-1-29,80,74,68,72,41,-100,100,39,1,30.15,30.04,9,3,16,0.00
2013-1-30,81,75,71,69,4,-100,89,31,1,30.04,29.89,10,4,18,0.00
2013-1-31,75,62,58,72,11,-100,100,44,1,30.10,29.87,16,-40,24,0.00
2013-2-1,74,62,52,74,-40,-100,100,15,1,30.19,30.08,8,4,14,0.00
2013-2-2,76,60,54,76,-7,-100,100,47,1,30.18,30.03,5,-37,9,0.14
2013-2-3,73,63,55,73,22,-100,100,65,1,30.09,29.99,8,2,14,0.00
2013-2-4,77,62,50,77,28,-100,100,55,1,30.07,29.94,5,1,9,0.00
2013-2-5,80,60,56,80,5,-100,100,52,1,30.00,29.92,6,-96,9,0.00
2013-2-6,81,68,64,66,-2,-100,100,40,1,30.02,29.94,5,-49,10,0.00
2013-2-7,81,37,64,66,-46,-100,100,27,36,29.99,29.86,12,-418,12,0.00
2013-2-8,-200,0,200,-100,-100,-100,0,0,100,29.95,29.83,0,-999,0,0.00
2013-2-9,-200,0,200,-100,-100,-100,0,0,100,29.99,29.93,0,-999,0,0.00
2013-2-14,72,21,66,71,-48,-100,100,30,98,29.93,29.85,20,-574,29,0.00
2013-2-15,73,35,68,73,-21,-100,100,50,56,29.94,29.86,8,-367,29,0.00
2013-2-16,73,58,54,73,14,-100,100,52,1,30.00,29.80,16,-100,29,0.00
2013-2-17,58,50,45,58,13,-100,100,63,1,30.23,29.99,16,-18,29,0.00
2013-2-18,70,59,46,70,-44,-100,100,20,1,30.23,30.12,7,4,29,0.00
2013-2-19,78,70,58,69,3,-100,100,28,1,30.12,30.00,8,3,29,0.00
2013-2-20,81,72,67,81,40,-100,100,68,4,30.03,29.93,6,1,29,0.00
2013-2-21,72,65,68,70,59,-100,100,93,64,29.99,29.91,2,-55,29,0.00
2013-2-22,83,50,73,69,-8,-100,81,27,3,30.01,29.93,16,-335,29,0.00
2013-2-23,77,74,74,71,68,65,84,80,74,29.96,29.90,8,3,29,0.00
2013-2-25,79,4,79,36,-93,-100,21,1,21,29.77,29.74,6,-837,6,0.00
2013-2-26,80,7,76,37,-92,-100,22,1,21,29.81,29.72,12,-849,12,0.00
2013-2-27,78,9,71,73,-87,-100,100,7,73,29.88,29.78,7,-837,11,0.00
2013-2-28,-200,0,200,-100,-100,-100,44,0,44,29.93,29.82,8,-992,8,0.00
2013-3-1,-200,0,200,-100,-100,-100,0,0,100,29.91,29.82,0,-992,2,0.00
2013-3-2,-200,0,200,-100,-100,-100,0,0,100,29.96,29.87,12,-990,12,0.00
2013-3-3,-200,0,200,-100,-100,-100,0,0,100,29.97,29.88,0,-999,2,0.00
2013-3-12,76,72,69,66,65,65,87,80,70,30.00,29.94,6,2,8,0.00
2013-3-13,76,66,57,65,53,41,92,66,31,30.12,29.98,9,4,17,0.00
2013-3-14,64,59,56,54,48,38,83,70,38,30.20,30.11,7,2,11,0.00
2013-3-15,75,63,52,53,48,44,81,61,37,30.25,30.14,6,2,12,0.00
2013-3-16,77,65,52,56,52,50,97,68,42,30.19,30.08,6,2,13,0.00
2013-3-17,78,68,55,61,57,54,96,72,48,30.15,30.02,6,2,11,0.00
2013-3-18,80,71,62,70,65,59,94,80,61,30.08,29.96,7,2,15,0.03
2013-3-19,80,73,67,70,68,65,97,85,61,30.01,29.81,7,2,13,0.04
2013-3-20,88,73,63,69,63,56,99,74,40,29.98,29.80,12,2,18,0.00
2013-3-21,66,65,63,62,61,61,94,89,84,29.86,29.83,5,2,8,0.00
2013-3-22,78,72,55,69,62,53,95,71,52,30.00,29.91,7,3,15,0.00
2013-3-23,91,79,71,74,70,67,98,76,46,29.98,29.80,5,2,13,0.00
2013-3-24,91,81,74,74,71,68,95,75,50,29.89,29.69,8,3,21,0.00
2013-3-25,77,74,63,73,60,39,95,67,37,30.00,29.74,11,5,19,0.04
2013-3-26,66,60,51,46,38,30,65,45,28,30.21,29.98,12,8,22,0.00
2013-3-27,69,56,45,47,40,35,77,56,34,30.25,30.17,10,5,19,0.00
2013-3-28,74,61,50,49,44,38,82,56,29,30.26,30.16,7,3,14,0.00
2013-3-29,76,65,53,53,49,42,75,56,37,30.28,30.20,6,2,14,0.00
2013-3-30,77,67,54,56,51,45,92,61,34,30.26,30.16,5,2,12,0.00
2013-3-31,81,70,58,66,61,53,95,73,51,30.19,30.04,7,2,16,0.00
2013-4-1,87,76,66,71,66,60,95,73,42,30.05,29.94,9,2,16,0.00
2013-4-2,86,73,66,68,65,61,98,77,44,30.08,29.99,5,2,12,0.00
2013-4-3,84,76,66,70,67,64,96,75,55,30.06,29.98,7,3,16,0.00
2013-4-4,87,76,67,72,69,66,98,81,54,30.04,29.90,16,3,30,1.59
2013-4-5,72,68,66,70,66,64,98,94,84,29.98,29.82,10,2,18,0.89
2013-4-6,79,68,59,66,61,57,95,78,60,30.08,29.92,8,4,16,0.02
2013-4-7,80,73,68,65,63,61,82,71,54,30.13,30.01,6,3,14,0.00
2013-4-8,84,73,60,65,61,54,97,68,36,30.12,30.04,5,2,12,0.00
2013-4-9,81,74,64,68,65,63,97,75,57,30.14,30.04,7,3,16,0.00
2013-4-10,85,78,71,72,70,66,85,76,63,30.10,29.99,7,4,15,0.00
2013-4-11,77,76,76,72,71,70,86,84,82,30.01,29.95,6,4,14,0.00
2013-4-12,88,81,73,78,74,70,92,80,64,29.94,29.85,7,3,24,0.80
2013-4-13,87,77,72,76,73,70,96,86,58,29.96,29.87,6,2,12,0.12
2013-4-14,89,80,72,76,73,70,98,80,55,29.96,29.88,7,3,16,0.00
2013-4-15,92,78,70,76,73,68,97,85,50,30.05,29.92,7,2,12,0.23
2013-4-16,88,79,71,77,72,70,99,82,61,30.11,30.01,6,2,13,0.01
2013-4-17,86,79,73,72,69,67,90,74,56,30.10,30.01,6,2,14,0.00
2013-4-18,87,80,73,73,70,67,88,73,54,30.05,29.97,7,3,14,0.00
2013-4-19,89,82,77,74,72,68,87,72,53,30.04,29.95,9,4,17,0.00
2013-4-20,92,79,73,77,73,65,97,82,44,30.07,29.92,15,2,20,0.25
2013-4-21,86,78,72,74,71,66,96,83,54,30.08,29.97,9,3,18,0.01
2013-4-22,88,74,68,73,69,66,98,87,53,30.04,29.91,6,2,15,2.15
2013-4-23,85,75,68,71,66,61,98,75,53,30.08,29.94,6,3,15,0.00
2013-4-24,73,73,72,62,61,60,70,68,66,30.08,30.02,3,1,10,0.00
2013-4-25,76,74,72,63,62,61,73,67,61,30.19,30.14,3,1,10,0.00
2013-4-26,84,75,64,66,64,60,92,68,51,30.21,30.10,6,2,15,0.00
2013-4-27,83,77,70,68,64,58,77,64,44,30.20,30.07,6,3,15,0.00
2013-4-28,85,78,72,66,63,60,75,62,47,30.11,29.98,6,4,17,0.00
2013-4-29,85,78,74,73,68,63,89,74,59,30.02,29.92,7,3,16,0.15
2013-4-30,77,74,71,71,70,68,94,87,80,29.97,29.92,3,1,7,0.23
2013-5-1,87,75,69,74,70,68,98,87,60,29.99,29.90,6,1,12,0.26
2013-5-2,81,72,69,74,70,67,98,92,77,29.93,29.77,9,2,19,2.21
2013-5-3,88,75,68,72,69,66,98,84,50,29.81,29.67,7,2,14,0.25
2013-5-4,86,77,68,71,68,64,98,77,50,29.80,29.68,11,4,20,0.01
2013-5-5,72,70,69,68,67,66,94,89,81,29.85,29.75,10,5,15,0.00
2013-5-8,88,78,61,67,60,54,97,57,33,30.13,30.04,5,2,9,0.00
2013-5-9,88,78,66,73,67,58,88,71,47,30.13,30.05,5,2,11,0.00
2013-5-10,90,81,72,74,72,68,93,74,49,30.12,30.01,7,2,14,0.00
2013-5-11,90,79,70,76,73,67,97,82,59,30.06,29.97,8,2,18,1.07
2013-5-12,94,79,71,75,72,68,98,81,45,30.06,29.94,6,1,14,0.29
2013-5-13,86,78,71,73,70,64,98,78,55,30.07,29.98,8,2,14,0.00
2013-5-14,83,76,69,67,62,56,87,63,43,30.16,30.05,6,2,15,0.00
2013-5-15,84,75,64,64,60,55,88,63,39,30.18,30.08,6,2,14,0.00
2013-5-16,85,76,64,65,62,57,88,62,44,30.10,30.03,5,2,13,0.00
2013-5-17,90,79,68,72,69,63,91,72,43,30.07,30.00,5,2,12,0.00
2013-5-18,86,80,72,75,72,70,95,77,63,30.09,30.01,7,2,15,0.02
2013-5-19,88,80,71,72,69,66,94,72,50,30.09,29.98,5,2,13,0.00
2013-5-20,81,76,69,74,72,68,97,87,74,30.06,29.95,6,1,12,3.08
2013-5-21,87,77,70,75,71,67,97,83,52,30.03,29.91,7,2,15,0.11
2013-5-22,91,77,73,76,72,69,96,87,51,29.95,29.88,5,1,17,0.32
2013-5-23,92,81,73,76,73,66,98,78,44,29.99,29.90,7,2,14,0.00
2013-5-24,94,82,74,76,73,64,96,76,44,30.05,29.93,7,2,15,0.00
2013-5-25,87,80,74,75,69,64,93,72,48,30.15,30.02,6,2,15,0.00
2013-5-26,86,79,70,69,65,62,83,64,48,30.16,30.09,7,3,15,0.00
2013-5-27,85,80,75,74,70,64,88,73,64,30.14,30.05,8,4,17,0.00
2013-5-28,84,79,75,74,72,70,91,81,67,30.09,30.02,8,5,19,0.12
2013-5-29,81,76,72,75,72,67,96,87,69,30.08,30.01,10,4,22,1.45
2013-5-30,85,79,73,75,72,70,94,80,69,30.05,29.98,10,6,23,0.12
2013-5-31,86,79,75,77,74,-100,94,83,67,30.04,29.98,8,4,16,0.22
2013-6-1,84,77,74,78,75,72,97,93,78,30.02,29.94,6,1,10,1.70
2013-6-2,92,79,72,78,74,71,99,85,54,29.99,29.90,5,1,10,0.74
2013-6-3,91,80,73,77,74,71,98,82,54,30.02,29.90,4,1,9,0.00
2013-6-4,88,79,73,78,74,71,97,86,58,30.04,29.94,4,1,10,0.10
2013-6-5,85,81,78,77,76,74,92,85,75,30.01,29.88,5,2,11,0.02
2013-6-6,90,81,76,80,76,72,95,85,67,29.90,29.76,10,4,21,0.98
2013-6-7,91,78,74,78,74,72,97,89,63,30.00,29.83,6,2,15,3.34
2013-6-8,91,81,74,78,76,73,98,84,62,30.09,29.95,6,2,16,0.00
2013-6-9,89,83,80,76,75,72,86,76,63,30.10,30.02,7,4,16,0.00
2013-6-10,90,84,80,77,76,74,87,77,62,30.08,29.99,6,3,16,0.00
2013-6-11,92,84,79,79,76,71,92,80,53,30.08,29.99,5,2,13,0.01
2013-6-12,91,80,76,78,76,73,96,87,58,30.07,30.00,6,1,11,0.07
2013-6-13,93,80,74,78,74,67,98,82,49,30.05,29.93,6,1,13,0.03
2013-6-14,92,80,73,77,74,70,96,81,55,29.97,29.87,11,2,23,0.53
2013-6-15,92,82,74,77,75,70,97,79,53,30.04,29.92,4,1,10,0.00
2013-6-16,92,84,74,78,75,72,97,77,52,30.08,30.00,6,2,13,0.00
2013-6-17,94,85,76,78,75,72,94,73,52,30.07,29.99,6,2,12,0.00
2013-6-18,93,85,77,77,75,73,94,74,54,30.06,29.97,6,2,13,0.00
2013-6-19,94,85,78,78,75,72,93,74,52,30.03,29.96,6,2,13,0.00
2013-6-20,94,82,73,78,73,70,95,76,48,30.08,30.01,8,2,16,1.02
2013-6-21,93,84,76,76,73,68,93,71,46,30.10,30.01,5,2,12,0.00
2013-6-22,89,81,76,75,73,71,89,78,56,30.08,30.02,4,1,9,0.00
2013-6-23,91,86,82,78,74,70,79,66,54,30.11,30.05,7,4,14,0.40
2013-6-24,90,84,78,78,74,69,88,73,58,30.15,30.06,7,3,17,0.05
2013-6-25,91,83,78,79,75,72,91,76,58,30.11,30.02,7,3,15,0.25
2013-6-26,92,84,77,78,75,71,91,74,53,30.06,29.99,6,3,15,0.03
2013-6-27,90,83,77,78,75,71,92,77,62,30.05,29.94,4,1,10,0.01
2013-6-28,95,83,75,78,75,70,97,79,49,29.99,29.84,6,1,10,0.25
2013-6-29,95,82,75,78,75,71,97,82,47,29.91,29.82,7,1,15,0.25
2013-6-30,92,82,77,78,75,72,92,79,56,29.93,29.84,8,2,18,0.48
2013-7-1,91,82,76,78,75,72,94,82,61,30.02,29.90,8,2,18,0.20
2013-7-2,89,82,76,79,76,71,95,82,63,30.10,29.96,7,2,16,0.01
2013-7-3,89,83,77,78,75,71,92,79,64,30.12,30.02,9,4,19,0.17
2013-7-4,90,83,75,76,75,69,97,77,58,30.15,30.05,9,4,19,0.13
2013-7-5,88,81,75,79,76,73,97,83,68,30.12,30.03,8,3,19,0.34
2013-7-6,90,83,78,77,75,71,89,77,55,30.10,30.01,8,4,15,0.06
2013-7-7,89,84,77,79,75,72,93,76,59,30.08,30.00,7,3,18,0.05
2013-7-8,91,84,77,75,73,71,85,71,56,30.13,30.06,6,2,16,0.01
2013-7-9,86,82,78,73,72,71,82,73,62,30.07,30.03,4,2,11,0.00
2013-7-10,86,78,74,76,74,72,96,87,67,30.07,29.98,5,1,11,0.68
2013-7-11,93,82,75,79,74,72,98,80,54,30.03,29.92,7,2,15,0.00
2013-7-12,93,82,75,78,74,69,96,79,47,29.96,29.88,6,1,11,0.24
2013-7-13,89,77,72,76,73,70,97,88,62,30.01,29.90,6,1,10,1.44
2013-7-14,92,79,72,76,73,71,97,84,54,30.08,29.97,9,2,15,0.69
2013-7-15,92,81,73,77,73,70,97,79,51,30.08,29.99,6,2,13,0.04
2013-7-16,85,78,74,75,72,70,94,82,62,30.13,30.03,9,3,21,0.28
2013-7-17,79,75,71,76,73,69,97,94,80,30.14,30.03,8,1,19,3.77
2013-7-18,85,76,72,79,74,70,98,92,71,30.12,30.04,11,1,18,1.32
2013-7-19,90,81,73,79,76,72,99,84,60,30.11,30.03,6,2,14,0.00
2013-7-20,89,82,75,79,76,72,95,84,58,30.10,30.02,6,2,13,0.17
2013-7-21,92,82,75,79,76,72,97,84,61,30.13,30.03,6,1,11,0.00
2013-7-22,93,85,78,78,75,71,95,76,52,30.13,30.05,5,2,13,0.00
2013-7-23,95,84,76,78,75,69,95,76,44,30.10,29.95,6,1,12,0.35
2013-7-24,94,85,77,78,75,69,96,74,46,30.01,29.90,6,2,12,0.01
2013-7-25,94,85,76,77,74,72,91,73,53,30.01,29.90,8,2,15,0.00
2013-7-26,95,83,76,78,76,73,96,81,52,30.02,29.91,12,2,20,1.87
2013-7-27,89,80,75,80,76,74,98,88,64,29.99,29.92,7,1,11,0.39
2013-7-28,90,82,77,78,76,73,96,83,62,30.06,29.94,7,1,11,0.03
2013-7-29,93,83,76,79,76,74,97,81,55,30.12,30.00,6,2,13,0.00
2013-7-30,93,85,76,80,77,74,94,77,58,30.15,30.06,6,2,12,0.05
2013-7-31,92,85,80,78,76,72,89,74,55,30.09,29.99,6,3,17,0.00
2013-8-1,92,84,79,76,74,70,86,73,53,30.04,29.92,6,3,15,0.00
2013-8-2,93,82,76,78,74,70,92,78,52,30.04,29.90,5,1,10,0.02
2013-8-3,90,79,72,79,75,70,97,88,61,30.12,30.01,6,1,16,0.34
2013-8-4,96,83,76,79,75,69,96,80,42,30.10,29.97,10,1,19,0.05
2013-8-5,92,82,77,80,76,72,95,83,57,30.03,29.93,10,2,18,0.02
2013-8-6,94,83,76,79,76,72,96,80,54,29.98,29.87,10,1,15,0.00
2013-8-7,92,84,76,79,76,74,97,78,56,29.95,29.89,6,2,13,0.01
2013-8-13,94,88,78,80,75,70,93,66,50,30.01,29.94,6,3,12,0.00
2013-8-14,94,85,76,78,75,70,96,73,50,30.01,29.91,6,2,15,0.00
2013-8-15,88,82,76,78,76,73,95,84,70,30.05,29.95,4,1,11,0.08
2013-8-16,88,82,78,80,77,76,95,87,70,30.04,29.97,4,1,8,0.00
2013-8-17,93,86,82,79,77,74,87,75,54,30.06,29.98,7,3,17,0.00
2013-8-18,91,85,82,80,77,74,86,76,62,30.06,29.97,9,3,17,0.16
2013-8-19,92,85,77,78,76,74,96,78,55,30.05,29.94,8,3,18,0.11
2013-8-20,92,85,78,78,76,72,91,74,52,30.05,29.97,7,3,18,0.08
2013-8-21,91,83,78,80,77,75,94,82,64,30.06,29.97,7,3,17,0.13
2013-8-22,91,84,76,79,77,73,96,79,62,30.06,29.93,6,2,14,0.04
2013-8-23,93,84,77,79,76,72,94,78,56,30.00,29.92,7,2,12,0.00
2013-8-24,94,84,76,79,76,72,96,78,55,30.10,29.95,7,2,15,0.18
2013-8-25,88,80,77,78,74,-100,96,84,66,30.14,30.01,9,-8,12,0.08
2013-8-26,91,82,76,78,74,71,93,79,55,30.10,29.99,8,1,12,0.00
2013-8-27,90,80,74,77,73,71,94,82,53,30.03,29.95,5,1,10,0.02
2013-8-28,89,80,75,77,74,67,95,83,60,30.03,29.93,7,2,16,0.39
2013-8-29,93,83,74,78,74,71,95,78,50,30.01,29.92,5,1,10,0.00
2013-8-31,92,80,75,79,74,72,97,85,53,29.97,29.91,6,1,9,0.23
2013-9-1,90,79,73,80,76,72,99,89,63,29.99,29.92,5,0,12,0.05
2013-9-2,95,78,72,80,75,68,99,90,52,30.08,29.92,12,1,25,2.52
2013-9-3,90,80,72,80,76,72,99,87,66,30.01,29.91,4,1,11,0.06
2013-9-4,89,82,77,79,77,75,97,86,69,30.05,29.93,4,1,9,0.06
2013-9-5,92,83,78,80,77,75,95,81,59,30.05,29.97,5,1,11,0.01
2013-9-6,94,84,77,80,76,72,97,78,48,30.02,29.90,5,2,12,0.00
2013-9-7,89,79,74,78,75,71,94,87,65,29.97,29.89,8,1,12,0.03
2013-9-8,93,79,73,77,74,71,98,88,53,29.93,29.84,8,1,16,0.22
2013-9-9,92,82,74,78,74,71,97,79,58,29.98,29.88,6,2,12,0.00
2013-9-10,91,81,76,79,75,71,95,82,59,30.02,29.93,6,2,14,0.27
2013-9-11,84,80,76,80,75,73,95,86,76,30.03,29.94,6,1,15,0.20
2013-9-12,86,80,76,78,76,73,97,86,70,30.00,29.87,3,1,8,0.01
2013-9-13,93,83,74,78,74,72,98,77,52,29.89,29.78,5,1,11,0.00
2013-9-14,94,84,75,78,74,70,97,75,46,29.96,29.81,5,1,11,0.00
2013-9-15,87,81,78,79,76,72,93,86,74,30.03,29.90,7,1,12,0.08
2013-9-16,85,80,78,79,76,73,96,87,75,30.02,29.94,7,2,14,0.15
2013-9-17,85,79,74,79,76,72,96,90,78,30.01,29.89,5,1,10,0.66
2013-9-18,88,80,75,78,75,72,96,87,67,30.00,29.89,4,1,9,0.09
2013-9-19,90,80,74,78,75,72,98,86,63,29.99,29.90,8,1,15,0.15
2013-9-20,89,81,73,75,72,68,94,76,51,29.98,29.87,5,1,13,0.05
2013-9-21,88,80,72,76,74,71,96,80,62,29.90,29.75,4,1,9,0.00
2013-9-22,94,84,75,78,75,71,96,77,48,29.85,29.74,5,1,14,0.00
2013-9-23,90,81,77,79,77,72,97,88,67,29.96,29.84,6,0,15,0.52
2013-9-24,95,83,75,81,75,71,98,80,53,29.95,29.85,8,1,16,0.02
2013-9-25,88,80,74,80,75,71,95,84,67,29.90,29.79,9,1,15,0.23
2013-9-26,90,80,76,81,77,74,97,90,69,29.85,29.78,12,2,24,0.28
2013-9-27,88,80,74,77,74,70,98,82,56,29.90,29.80,8,2,13,0.00
2013-9-28,90,80,73,77,73,70,96,81,57,29.95,29.85,7,2,14,1.70
2013-9-29,90,80,73,75,72,68,98,77,51,29.95,29.85,5,1,14,0.00
2013-9-30,91,81,71,75,71,69,95,74,52,29.98,29.88,4,2,10,0.00
2013-10-1,90,83,74,75,73,70,92,72,55,30.01,29.93,6,2,14,0.00
2013-10-2,86,82,80,76,74,72,82,76,66,30.02,29.94,6,3,14,0.00
2013-10-3,84,79,76,76,74,73,91,85,76,30.02,29.92,5,1,8,0.00
2013-10-4,90,83,73,76,72,70,96,71,55,30.04,29.96,4,2,13,0.00
2013-10-5,91,81,72,74,71,64,96,74,44,30.01,29.91,4,1,10,0.00
2013-10-6,93,82,74,76,72,66,95,73,43,29.95,29.84,4,1,9,0.00
2013-10-7,92,80,73,76,73,70,96,80,51,29.88,29.79,16,2,27,0.34
2013-10-8,89,81,75,79,75,71,98,82,63,29.92,29.83,8,2,14,0.06
2013-10-9,86,78,72,77,73,70,96,85,71,29.97,29.88,8,2,15,0.00
2013-10-10,90,79,72,76,72,69,95,79,60,29.99,29.91,4,2,14,0.00
2013-10-11,89,78,69,72,69,67,96,74,49,29.99,29.92,5,1,11,0.00
2013-10-12,88,76,67,71,68,66,98,77,52,30.01,29.93,4,1,10,0.00
2013-10-13,88,78,71,72,68,63,95,74,46,30.03,29.94,4,1,11,0.00
2013-10-14,88,78,71,71,69,66,93,75,51,30.00,29.88,4,1,11,0.00
2013-10-15,88,78,71,73,70,68,96,79,56,29.94,29.84,5,2,11,0.00
2013-10-16,88,78,71,74,70,68,94,78,55,29.93,29.86,4,1,10,0.00
2013-10-17,89,79,71,74,71,69,96,78,54,29.95,29.87,4,1,10,0.00
2013-10-18,89,80,71,75,72,69,97,79,56,29.97,29.88,5,1,11,0.00
2013-10-19,91,82,72,75,73,70,96,76,57,29.94,29.85,5,2,12,0.00
2013-10-20,94,82,76,78,75,70,95,82,47,29.94,29.85,5,1,13,0.07
2013-10-21,90,82,75,78,75,73,96,80,60,29.98,29.88,6,2,11,0.00
2013-10-22,92,82,74,79,75,73,98,81,56,29.95,29.81,5,1,13,0.02
2013-10-23,87,80,76,77,74,69,96,80,64,29.94,29.80,8,2,15,0.00
2013-10-24,80,76,72,70,66,62,83,72,63,30.07,29.91,6,2,13,0.00
2013-10-25,84,76,69,67,65,62,85,70,49,30.13,30.04,6,3,14,0.00
2013-10-26,85,74,67,67,64,63,91,73,50,30.13,30.03,4,1,10,0.00
2013-10-27,84,74,65,66,63,60,86,70,49,30.07,30.00,4,1,12,0.00
2013-10-28,86,75,65,68,65,59,96,72,42,30.12,30.03,4,1,12,0.00
2013-10-29,85,76,67,71,67,65,95,75,56,30.15,30.07,6,2,16,0.00
2013-10-30,86,79,70,69,67,65,88,68,53,30.17,30.06,7,3,15,0.00
2013-10-31,86,80,71,73,70,66,92,74,59,30.09,29.97,6,2,15,0.00
2013-11-1,89,80,72,76,73,70,96,79,58,30.00,29.86,6,2,13,0.01
2013-11-2,90,79,71,74,71,64,98,78,47,29.92,29.78,10,2,14,0.00
2013-11-3,82,74,68,67,63,60,86,70,54,30.00,29.87,10,5,21,0.00
2013-11-4,81,76,73,69,64,56,85,67,44,30.06,29.98,8,3,18,0.03
2013-11-5,82,78,73,72,69,65,91,73,60,30.06,29.99,9,5,19,0.11
2013-11-6,78,78,77,70,70,70,78,77,76,30.02,29.98,7,5,14,0.00
2013-11-12,85,79,69,72,68,67,94,72,57,30.05,29.94,4,2,0,0.00
2013-11-13,76,71,68,67,64,57,91,78,63,30.18,29.97,8,4,18,0.10
2013-11-14,77,73,69,63,58,55,71,61,53,30.21,30.11,7,4,16,0.00
2013-11-15,81,77,73,71,66,61,92,71,62,30.12,30.00,6,4,16,0.02
2013-11-16,81,78,74,73,69,62,91,75,57,30.07,29.99,6,2,13,0.14
2013-11-17,85,79,72,73,71,69,93,77,63,30.05,29.98,7,2,14,0.00
2013-11-18,87,76,70,74,71,68,97,84,63,30.01,29.89,3,1,7,0.06
2013-11-19,86,76,71,74,71,69,95,86,62,29.92,29.83,6,1,14,0.00
2013-11-20,85,76,70,75,72,69,98,86,67,30.03,29.90,4,1,8,0.00
2013-11-21,82,76,72,75,72,70,97,89,76,30.11,30.02,6,2,15,0.81
2013-11-22,82,77,73,73,71,69,96,82,70,30.13,30.04,8,3,16,0.50
2013-11-23,84,77,72,73,71,69,91,81,65,30.05,29.95,5,2,13,0.00
2013-11-24,82,74,68,71,68,64,96,83,61,30.12,29.96,8,2,14,0.06
2013-11-25,76,73,71,70,65,60,92,76,67,30.17,30.03,8,5,18,0.14
2013-11-26,84,78,72,75,73,70,94,85,70,30.02,29.81,9,4,20,0.17
2013-11-27,78,73,71,75,70,64,97,91,67,29.88,29.77,12,3,18,0.84
2013-11-28,73,69,65,59,57,55,82,68,56,30.22,30.13,3,1,14,0.00
2013-11-29,78,65,59,63,59,57,92,82,56,30.25,30.17,5,3,15,0.00
2013-11-30,73,71,70,70,66,63,95,84,73,30.16,30.09,6,2,16,0.51
2013-12-2,64,62,61,62,60,60,96,94,91,29.91,29.89,0,0,1,0.00
2013-12-3,81,70,59,66,63,58,98,80,50,29.98,29.88,3,1,9,0.00
2013-12-4,81,71,63,71,66,62,98,85,59,30.07,29.97,4,1,8,0.03
2013-12-5,83,73,63,72,68,63,99,84,66,30.14,30.05,6,2,14,0.00
2013-12-6,84,77,68,71,69,66,94,78,60,30.16,30.07,6,3,15,0.00
2013-12-7,85,74,65,72,68,64,98,83,58,30.19,30.11,5,1,11,0.05
2013-12-8,83,76,69,72,69,67,97,80,60,30.19,30.10,7,3,17,0.32
2013-12-9,84,78,69,71,68,63,93,74,51,30.17,30.08,7,3,16,0.00
2013-12-10,86,77,68,73,71,67,97,82,63,30.14,30.05,5,1,12,0.00
2013-12-11,85,76,70,75,71,69,98,86,65,30.17,30.09,5,1,10,0.00
2013-12-12,80,71,64,71,66,59,98,86,71,30.20,30.11,9,3,19,0.01
2013-12-13,78,73,63,69,64,58,90,74,61,30.17,30.07,6,3,17,0.01
2013-12-14,83,77,71,72,70,68,95,81,67,30.08,29.97,7,4,17,0.00
2013-12-15,85,76,71,76,72,68,96,87,69,30.04,29.91,12,2,19,0.00
2013-12-16,73,68,61,68,61,59,91,81,68,30.14,30.01,8,4,15,0.00
2013-12-17,78,67,58,66,60,57,95,79,56,30.16,30.07,6,2,13,0.00
2013-12-18,76,66,60,60,58,56,95,78,54,30.21,30.12,9,3,15,0.00
2013-12-19,78,68,56,63,59,54,97,75,56,30.22,30.13,6,2,14,0.00
2013-12-20,82,76,67,70,67,62,86,76,63,30.16,30.08,7,3,15,0.00
2013-12-21,82,78,75,73,72,70,87,80,70,30.13,30.04,8,4,18,0.00
2013-12-22,84,79,76,73,72,70,87,80,67,30.14,30.05,8,4,18,0.00
2013-12-23,84,78,70,74,72,68,96,82,68,30.15,30.09,6,3,15,0.00
2013-12-24,82,71,66,73,67,61,99,88,67,30.15,30.06,12,3,19,0.03
2013-12-25,77,73,68,68,66,63,89,79,70,30.15,30.07,6,2,15,0.00
2013-12-26,79,75,71,71,69,67,90,82,73,30.14,30.04,4,1,10,0.00
2013-12-27,81,74,67,72,69,66,97,85,70,30.17,30.06,5,2,13,0.01
2013-12-28,80,77,74,73,71,68,89,82,75,30.15,30.00,7,4,15,0.02
2013-12-29,82,77,74,74,73,72,96,87,76,30.01,29.91,6,2,16,0.00
2013-12-30,79,73,68,73,70,65,98,90,76,30.12,29.96,7,2,11,0.02
2013-12-31,80,73,67,69,64,62,91,76,60,30.20,30.08,6,3,14,0.00
2014-1-1,81,76,73,74,71,65,94,85,72,30.17,30.02,6,2,13,0.18
2014-1-2,86,76,66,72,69,65,99,81,53,30.02,29.85,6,2,18,0.01